Time,TemperatureF,DewpointF,PressureIn,WindDirection,WindDirectionDegrees,WindSpeedMPH,WindSpeedGustMPH,Humidity,HourlyPrecipIn,Conditions,Clouds,dailyrainin,SoftwareType,DateUTC
2013-05-22 00:00:00,41.4,26.9,29.61,WNW,284,0.0,1.0,56,0.00,,,0.00,Wunderground v.1.15,2013-05-22 04:00:00,
2013-05-22 00:05:00,42.6,27.5,29.61,East,83,0.0,1.0,55,0.00,,,0.00,Wunderground v.1.15,2013-05-22 04:05:00,
2013-05-22 00:10:00,43.5,27.5,29.61,East,80,0.0,1.0,53,0.00,,,0.00,Wunderground v.1.15,2013-05-22 04:10:00,
2013-05-22 00:15:00,43.7,27.7,29.62,NNW,336,0.0,1.0,53,0.00,,,0.00,Wunderground v.1.15,2013-05-22 04:15:00,
2013-05-22 00:20:00,43.7,28.1,29.61,NNW,337,0.0,1.0,54,0.00,,,0.00,Wunderground v.1.15,2013-05-22 04:20:00,
2013-05-22 00:25:00,43.7,28.1,29.61,NNW,337,0.0,1.0,54,0.00,,,0.00,Wunderground v.1.15,2013-05-22 04:25:00,
2013-05-22 00:30:00,43.6,28.5,29.61,NNW,336,0.0,1.0,55,0.00,,,0.00,Wunderground v.1.15,2013-05-22 04:30:00,
2013-05-22 00:35:00,43.5,28.8,29.61,NNW,337,0.0,1.0,56,0.00,,,0.00,Wunderground v.1.15,2013-05-22 04:35:00,
2013-05-22 00:40:00,43.3,29.1,29.61,NNW,337,0.0,1.0,57,0.00,,,0.00,Wunderground v.1.15,2013-05-22 04:40:00,
2013-05-22 00:45:00,43.2,29.0,29.61,NNW,337,0.0,1.0,57,0.00,,,0.00,Wunderground v.1.15,2013-05-22 04:45:00,
2013-05-22 00:50:00,43.0,28.8,29.61,NNW,337,0.0,1.0,57,0.00,,,0.00,Wunderground v.1.15,2013-05-22 04:50:00,
2013-05-22 00:55:00,42.8,28.6,29.61,NNW,337,0.0,1.0,57,0.00,,,0.00,Wunderground v.1.15,2013-05-22 04:55:00,
2013-05-22 01:00:00,42.6,28.8,29.61,NNW,337,0.0,1.0,58,0.00,,,0.00,Wunderground v.1.15,2013-05-22 05:00:00,
2013-05-22 01:05:00,42.1,28.8,29.60,NNW,337,0.0,1.0,59,0.00,,,0.00,Wunderground v.1.15,2013-05-22 05:05:00,
2013-05-22 01:10:00,41.5,29.0,29.60,NNW,337,0.0,1.0,61,0.00,,,0.00,Wunderground v.1.15,2013-05-22 05:10:00,
2013-05-22 01:20:00,40.7,29.1,29.60,NNW,337,0.0,1.0,63,0.00,,,0.00,Wunderground v.1.15,2013-05-22 05:20:00,
2013-05-22 01:25:00,40.5,29.3,29.59,NNW,337,0.0,1.0,64,0.00,,,0.00,Wunderground v.1.15,2013-05-22 05:25:00,
2013-05-22 01:35:00,40.1,29.3,29.59,NNW,337,0.0,1.0,65,0.00,,,0.00,Wunderground v.1.15,2013-05-22 05:35:00,
2013-05-22 01:40:00,40.1,29.6,29.59,NNW,337,0.0,1.0,66,0.00,,,0.00,Wunderground v.1.15,2013-05-22 05:40:00,
2013-05-22 01:45:00,40.0,29.6,29.59,NNW,337,0.0,1.0,66,0.00,,,0.00,Wunderground v.1.15,2013-05-22 05:45:00,
2013-05-22 01:50:00,40.0,29.6,29.59,NNW,337,0.0,1.0,66,0.00,,,0.00,Wunderground v.1.15,2013-05-22 05:50:00,
2013-05-22 02:00:00,39.1,29.4,29.59,NNW,337,0.0,1.0,68,0.00,,,0.00,Wunderground v.1.15,2013-05-22 06:00:00,
2013-05-22 02:05:00,38.7,29.4,29.59,NNW,337,0.0,1.0,69,0.00,,,0.00,Wunderground v.1.15,2013-05-22 06:05:00,
2013-05-22 02:10:00,38.7,29.8,29.59,NNW,337,0.0,1.0,70,0.00,,,0.00,Wunderground v.1.15,2013-05-22 06:10:00,
2013-05-22 02:15:00,38.8,29.8,29.59,NNW,337,0.0,1.0,70,0.00,,,0.00,Wunderground v.1.15,2013-05-22 06:15:00,
2013-05-22 02:20:00,38.8,29.8,29.59,NNW,337,0.0,1.0,70,0.00,,,0.00,Wunderground v.1.15,2013-05-22 06:20:00,
2013-05-22 02:25:00,38.6,29.7,29.59,NNW,336,0.0,1.0,70,0.00,,,0.00,Wunderground v.1.15,2013-05-22 06:25:00,
2013-05-22 02:30:00,38.6,30.0,29.58,NNW,337,0.0,1.0,71,0.00,,,0.00,Wunderground v.1.15,2013-05-22 06:30:00,
2013-05-22 02:35:00,38.6,30.0,29.58,NNW,337,0.0,1.0,71,0.00,,,0.00,Wunderground v.1.15,2013-05-22 06:35:00,
2013-05-22 02:40:00,38.6,30.4,29.58,NNW,337,0.0,1.0,72,0.00,,,0.00,Wunderground v.1.15,2013-05-22 06:40:00,
2013-05-22 02:50:00,39.1,30.5,29.58,NNW,337,0.0,1.0,71,0.00,,,0.00,Wunderground v.1.15,2013-05-22 06:50:00,
2013-05-22 02:55:00,39.1,30.5,29.58,NNW,337,0.0,1.0,71,0.00,,,0.00,Wunderground v.1.15,2013-05-22 06:55:00,
2013-05-22 02:59:00,39.2,30.9,29.58,NNW,337,0.0,1.0,72,0.00,,,0.00,Wunderground v.1.15,2013-05-22 06:59:00,
2013-05-22 03:05:00,39.2,30.9,29.58,NNW,337,0.0,1.0,72,0.00,,,0.00,Wunderground v.1.15,2013-05-22 07:05:00,
2013-05-22 03:10:00,39.3,31.0,29.58,NNW,337,0.0,1.0,72,0.00,,,0.00,Wunderground v.1.15,2013-05-22 07:10:00,
2013-05-22 03:15:00,39.5,31.2,29.58,NNW,337,0.0,1.0,72,0.00,,,0.00,Wunderground v.1.15,2013-05-22 07:15:00,
2013-05-22 03:20:00,39.7,31.1,29.57,NNW,337,0.0,1.0,71,0.00,,,0.00,Wunderground v.1.15,2013-05-22 07:20:00,
2013-05-22 03:25:00,40.0,31.0,29.57,NNW,337,0.0,1.0,70,0.00,,,0.00,Wunderground v.1.15,2013-05-22 07:25:00,
2013-05-22 03:30:00,40.2,31.2,29.57,NNW,337,0.0,1.0,70,0.00,,,0.00,Wunderground v.1.15,2013-05-22 07:30:00,
2013-05-22 03:35:00,40.5,31.1,29.57,NNW,337,0.0,1.0,69,0.00,,,0.00,Wunderground v.1.15,2013-05-22 07:35:00,
2013-05-22 03:45:00,41.3,31.2,29.57,NNW,337,0.0,1.0,67,0.00,,,0.00,Wunderground v.1.15,2013-05-22 07:45:00,
2013-05-22 03:50:00,41.4,31.6,29.57,NNW,337,0.0,1.0,68,0.00,,,0.00,Wunderground v.1.15,2013-05-22 07:50:00,
2013-05-22 03:55:00,41.2,31.4,29.57,NNW,337,0.0,1.0,68,0.00,,,0.00,Wunderground v.1.15,2013-05-22 07:55:00,
2013-05-22 04:00:00,40.9,31.5,29.56,NNW,337,0.0,1.0,69,0.00,,,0.00,Wunderground v.1.15,2013-05-22 08:00:00,
2013-05-22 04:10:00,40.3,31.3,29.56,NNW,337,0.0,1.0,70,0.00,,,0.00,Wunderground v.1.15,2013-05-22 08:10:00,
2013-05-22 04:15:00,40.1,31.4,29.56,NNW,337,0.0,1.0,71,0.00,,,0.00,Wunderground v.1.15,2013-05-22 08:15:00,
2013-05-22 04:20:00,40.0,31.4,29.56,NNW,337,0.0,1.0,71,0.00,,,0.00,Wunderground v.1.15,2013-05-22 08:20:00,
2013-05-22 04:25:00,39.8,31.5,29.56,NNW,337,0.0,1.0,72,0.00,,,0.00,Wunderground v.1.15,2013-05-22 08:25:00,
2013-05-22 04:30:00,39.5,31.2,29.56,NNW,337,0.0,1.0,72,0.00,,,0.00,Wunderground v.1.15,2013-05-22 08:30:00,
2013-05-22 04:35:00,39.2,30.9,29.56,NNW,337,0.0,1.0,72,0.00,,,0.00,Wunderground v.1.15,2013-05-22 08:35:00,
2013-05-22 04:40:00,38.8,30.5,29.56,NNW,337,0.0,1.0,72,0.00,,,0.00,Wunderground v.1.15,2013-05-22 08:40:00,
2013-05-22 04:45:00,38.4,30.5,29.56,NNW,337,0.0,1.0,73,0.00,,,0.00,Wunderground v.1.15,2013-05-22 08:45:00,
2013-05-22 04:50:00,37.9,30.4,29.56,NNW,337,0.0,1.0,74,0.00,,,0.00,Wunderground v.1.15,2013-05-22 08:50:00,
2013-05-22 04:55:00,37.3,30.1,29.56,NNW,337,0.0,1.0,75,0.00,,,0.00,Wunderground v.1.15,2013-05-22 08:55:00,
2013-05-22 05:05:00,36.4,29.6,29.56,NNW,337,0.0,1.0,76,0.00,,,0.00,Wunderground v.1.15,2013-05-22 09:05:00,
2013-05-22 05:10:00,36.1,29.6,29.55,NNW,337,0.0,1.0,77,0.00,,,0.00,Wunderground v.1.15,2013-05-22 09:10:00,
2013-05-22 05:15:00,35.7,29.5,29.55,NNW,337,0.0,1.0,78,0.00,,,0.00,Wunderground v.1.15,2013-05-22 09:15:00,
2013-05-22 05:20:00,35.3,29.1,29.55,NNW,337,0.0,1.0,78,0.00,,,0.00,Wunderground v.1.15,2013-05-22 09:20:00,
2013-05-22 05:25:00,35.0,29.1,29.55,NNW,337,0.0,1.0,79,0.00,,,0.00,Wunderground v.1.15,2013-05-22 09:25:00,
2013-05-22 05:30:00,34.6,29.1,29.55,NNW,337,0.0,1.0,80,0.00,,,0.00,Wunderground v.1.15,2013-05-22 09:30:00,
2013-05-22 05:35:00,34.4,28.9,29.55,NNW,337,0.0,1.0,80,0.00,,,0.00,Wunderground v.1.15,2013-05-22 09:35:00,
2013-05-22 05:40:00,34.2,29.0,29.55,NNW,337,0.0,1.0,81,0.00,,,0.00,Wunderground v.1.15,2013-05-22 09:40:00,
2013-05-22 05:45:00,34.1,28.9,29.55,NNW,337,0.0,1.0,81,0.00,,,0.00,Wunderground v.1.15,2013-05-22 09:45:00,
2013-05-22 05:50:00,33.9,29.0,29.55,NNW,337,0.0,1.0,82,0.00,,,0.00,Wunderground v.1.15,2013-05-22 09:50:00,
2013-05-22 05:55:00,33.6,28.7,29.55,NNW,337,0.0,1.0,82,0.00,,,0.00,Wunderground v.1.15,2013-05-22 09:55:00,
2013-05-22 06:00:00,33.6,29.0,29.55,NNW,337,0.0,1.0,83,0.00,,,0.00,Wunderground v.1.15,2013-05-22 10:00:00,
2013-05-22 06:05:00,33.5,28.6,29.55,NNW,337,0.0,1.0,82,0.00,,,0.00,Wunderground v.1.15,2013-05-22 10:05:00,
2013-05-22 06:15:00,33.2,28.6,29.55,NNW,337,0.0,1.0,83,0.00,,,0.00,Wunderground v.1.15,2013-05-22 10:15:00,
2013-05-22 06:20:00,33.1,28.8,29.55,NNW,337,0.0,1.0,84,0.00,,,0.00,Wunderground v.1.15,2013-05-22 10:20:00,
2013-05-22 06:25:00,32.9,28.6,29.54,NNW,337,0.0,1.0,84,0.00,,,0.00,Wunderground v.1.15,2013-05-22 10:25:00,
2013-05-22 06:30:00,32.7,28.7,29.54,NNW,337,0.0,1.0,85,0.00,,,0.00,Wunderground v.1.15,2013-05-22 10:30:00,
2013-05-22 06:35:00,32.6,28.6,29.54,NNW,337,0.0,1.0,85,0.00,,,0.00,Wunderground v.1.15,2013-05-22 10:35:00,
2013-05-22 06:40:00,32.4,28.7,29.55,NNW,337,0.0,1.0,86,0.00,,,0.00,Wunderground v.1.15,2013-05-22 10:40:00,
2013-05-22 06:45:00,32.2,28.5,29.55,NNW,337,0.0,1.0,86,0.00,,,0.00,Wunderground v.1.15,2013-05-22 10:45:00,
2013-05-22 06:50:00,32.1,28.7,29.55,NNW,337,0.0,1.0,87,0.00,,,0.00,Wunderground v.1.15,2013-05-22 10:50:00,
2013-05-22 06:55:00,32.1,28.4,29.55,NNW,337,0.0,1.0,86,0.00,,,0.00,Wunderground v.1.15,2013-05-22 10:55:00,
2013-05-22 07:00:00,32.1,28.7,29.55,NNW,337,0.0,1.0,87,0.00,,,0.00,Wunderground v.1.15,2013-05-22 11:00:00,
2013-05-22 07:05:00,32.0,28.6,29.55,NNW,337,0.0,1.0,87,0.00,,,0.00,Wunderground v.1.15,2013-05-22 11:05:00,
2013-05-22 07:15:00,31.6,28.2,29.55,NNW,337,0.0,1.0,87,0.00,,,0.00,Wunderground v.1.15,2013-05-22 11:15:00,
2013-05-22 07:20:00,31.5,28.1,29.54,NNW,337,0.0,1.0,87,0.00,,,0.00,Wunderground v.1.15,2013-05-22 11:20:00,
2013-05-22 07:25:00,31.4,28.3,29.54,NNW,337,0.0,1.0,88,0.00,,,0.00,Wunderground v.1.15,2013-05-22 11:25:00,
2013-05-22 07:30:00,31.5,28.4,29.55,NNW,337,0.0,1.0,88,0.00,,,0.00,Wunderground v.1.15,2013-05-22 11:30:00,
2013-05-22 07:35:00,31.4,28.3,29.55,NNW,337,0.0,1.0,88,0.00,,,0.00,Wunderground v.1.15,2013-05-22 11:35:00,
2013-05-22 07:40:00,31.2,28.1,29.55,NNW,337,0.0,1.0,88,0.00,,,0.00,Wunderground v.1.15,2013-05-22 11:40:00,
2013-05-22 07:45:00,31.2,28.3,29.55,NNW,337,0.0,1.0,89,0.00,,,0.00,Wunderground v.1.15,2013-05-22 11:45:00,
2013-05-22 07:55:00,31.0,28.1,29.56,NNW,337,0.0,1.0,89,0.00,,,0.00,Wunderground v.1.15,2013-05-22 11:55:00,
2013-05-22 08:00:00,31.0,28.4,29.56,NNW,337,0.0,1.0,90,0.00,,,0.00,Wunderground v.1.15,2013-05-22 12:00:00,
2013-05-22 08:05:00,31.1,28.5,29.56,NNW,337,0.0,1.0,90,0.00,,,0.00,Wunderground v.1.15,2013-05-22 12:05:00,
2013-05-22 08:10:00,31.1,28.2,29.56,NNW,337,0.0,1.0,89,0.00,,,0.00,Wunderground v.1.15,2013-05-22 12:10:00,
2013-05-22 08:15:00,31.2,28.3,29.56,NNW,337,0.0,1.0,89,0.00,,,0.00,Wunderground v.1.15,2013-05-22 12:15:00,
2013-05-22 08:20:00,31.2,28.6,29.56,NNW,337,0.0,1.0,90,0.00,,,0.00,Wunderground v.1.15,2013-05-22 12:20:00,
2013-05-22 08:30:00,31.4,28.8,29.56,NNW,337,0.0,1.0,90,0.00,,,0.00,Wunderground v.1.15,2013-05-22 12:30:00,
2013-05-22 08:35:00,31.5,28.9,29.56,NNW,337,0.0,1.0,90,0.00,,,0.00,Wunderground v.1.15,2013-05-22 12:35:00,
2013-05-22 08:40:00,31.5,28.9,29.56,NNW,337,0.0,1.0,90,0.00,,,0.00,Wunderground v.1.15,2013-05-22 12:40:00,
2013-05-22 08:45:00,31.8,29.2,29.56,NNW,337,0.0,1.0,90,0.00,,,0.00,Wunderground v.1.15,2013-05-22 12:45:00,
2013-05-22 08:50:00,32.3,30.0,29.56,NNW,337,0.0,1.0,91,0.00,,,0.00,Wunderground v.1.15,2013-05-22 12:50:00,
2013-05-22 08:55:00,32.9,30.3,29.56,NNW,337,0.0,1.0,90,0.00,,,0.00,Wunderground v.1.15,2013-05-22 12:55:00,
2013-05-22 09:00:00,33.8,30.9,29.55,NNW,336,0.0,1.0,89,0.00,,,0.00,Wunderground v.1.15,2013-05-22 13:00:00,
2013-05-22 09:05:00,35.0,32.1,29.56,NNW,337,0.0,1.0,89,0.00,,,0.00,Wunderground v.1.15,2013-05-22 13:05:00,
2013-05-22 09:15:00,37.4,32.7,29.55,NNW,337,0.0,1.0,83,0.00,,,0.00,Wunderground v.1.15,2013-05-22 13:15:00,
2013-05-22 09:25:00,38.8,33.5,29.55,NNW,337,0.0,1.0,81,0.00,,,0.00,Wunderground v.1.15,2013-05-22 13:25:00,
2013-05-22 09:30:00,40.5,34.2,29.55,NNW,337,0.0,1.0,78,0.00,,,0.00,Wunderground v.1.15,2013-05-22 13:30:00,
2013-05-22 09:35:00,42.2,34.2,29.55,West,271,0.0,1.0,73,0.00,,,0.00,Wunderground v.1.15,2013-05-22 13:35:00,
2013-05-22 09:40:00,44.0,33.4,29.55,SE,134,0.0,1.0,66,0.00,,,0.00,Wunderground v.1.15,2013-05-22 13:40:00,
2013-05-22 09:45:00,45.5,33.6,29.55,SE,138,0.0,1.0,63,0.00,,,0.00,Wunderground v.1.15,2013-05-22 13:45:00,
2013-05-22 09:50:00,46.6,33.9,29.55,SE,138,0.0,1.0,61,0.00,,,0.00,Wunderground v.1.15,2013-05-22 13:50:00,
2013-05-22 09:55:00,48.0,34.8,29.55,SSE,151,0.0,1.0,60,0.00,,,0.00,Wunderground v.1.15,2013-05-22 13:55:00,
2013-05-22 10:05:00,49.9,33.9,29.55,SSE,151,0.0,1.0,54,0.00,,,0.00,Wunderground v.1.15,2013-05-22 14:05:00,
2013-05-22 10:15:00,51.6,34.0,29.55,SSE,151,0.0,1.0,51,0.00,,,0.00,Wunderground v.1.15,2013-05-22 14:15:00,
2013-05-22 10:20:00,52.6,34.0,29.55,SSE,151,0.0,1.0,49,0.00,,,0.00,Wunderground v.1.15,2013-05-22 14:20:00,
2013-05-22 10:25:00,52.9,33.7,29.55,South,180,0.0,1.0,48,0.00,,,0.00,Wunderground v.1.15,2013-05-22 14:25:00,
2013-05-22 10:30:00,52.8,33.6,29.56,South,179,1.0,1.0,48,0.00,,,0.00,Wunderground v.1.15,2013-05-22 14:30:00,
2013-05-22 10:35:00,53.2,34.0,29.56,South,179,0.0,1.0,48,0.00,,,0.00,Wunderground v.1.15,2013-05-22 14:35:00,
2013-05-22 10:40:00,53.5,33.2,29.56,South,180,0.0,1.0,46,0.00,,,0.00,Wunderground v.1.15,2013-05-22 14:40:00,
2013-05-22 10:50:00,55.3,34.3,29.55,South,179,0.0,1.0,45,0.00,,,0.00,Wunderground v.1.15,2013-05-22 14:50:00,
2013-05-22 10:55:00,56.0,34.4,29.55,South,171,0.0,1.0,44,0.00,,,0.00,Wunderground v.1.15,2013-05-22 14:55:00,
2013-05-22 11:00:00,56.3,33.5,29.55,South,171,0.0,4.0,42,0.00,,,0.00,Wunderground v.1.15,2013-05-22 15:00:00,
2013-05-22 11:05:00,56.8,33.3,29.54,SE,125,0.0,4.0,41,0.00,,,0.00,Wunderground v.1.15,2013-05-22 15:05:00,
2013-05-22 11:10:00,57.2,32.4,29.54,ESE,108,0.0,1.0,39,0.00,,,0.00,Wunderground v.1.15,2013-05-22 15:10:00,
2013-05-22 11:15:00,57.2,33.1,29.54,SE,125,0.0,1.0,40,0.00,,,0.00,Wunderground v.1.15,2013-05-22 15:15:00,
2013-05-22 11:25:00,57.7,30.9,29.54,NW,310,0.0,1.0,36,0.00,,,0.00,Wunderground v.1.15,2013-05-22 15:25:00,
2013-05-22 11:30:00,57.6,30.8,29.54,SSW,200,1.0,1.0,36,0.00,,,0.00,Wunderground v.1.15,2013-05-22 15:30:00,
2013-05-22 11:35:00,57.5,30.7,29.54,SW,217,1.0,1.0,36,0.00,,,0.00,Wunderground v.1.15,2013-05-22 15:35:00,
2013-05-22 11:40:00,57.9,31.8,29.54,SSW,204,0.0,1.0,37,0.00,,,0.00,Wunderground v.1.15,2013-05-22 15:40:00,
2013-05-22 11:45:00,58.2,32.7,29.54,ENE,76,0.0,1.0,38,0.00,,,0.00,Wunderground v.1.15,2013-05-22 15:45:00,
2013-05-22 11:50:00,58.5,31.6,29.54,SE,142,1.0,1.0,36,0.00,,,0.00,Wunderground v.1.15,2013-05-22 15:50:00,
2013-05-22 11:55:00,58.7,30.4,29.54,South,178,1.0,1.0,34,0.00,,,0.00,Wunderground v.1.15,2013-05-22 15:55:00,
2013-05-22 12:00:00,58.9,31.3,29.54,North,349,1.0,1.0,35,0.00,,,0.00,Wunderground v.1.15,2013-05-22 16:00:00,
2013-05-22 12:05:00,59.1,30.7,29.54,West,274,1.0,1.0,34,0.00,,,0.00,Wunderground v.1.15,2013-05-22 16:05:00,
2013-05-22 12:10:00,59.5,31.1,29.54,SSW,196,1.0,1.0,34,0.00,,,0.00,Wunderground v.1.15,2013-05-22 16:10:00,
2013-05-22 12:15:00,60.0,30.8,29.54,SSE,163,1.0,6.0,33,0.00,,,0.00,Wunderground v.1.15,2013-05-22 16:15:00,
2013-05-22 12:20:00,59.5,30.3,29.53,South,184,2.0,2.0,33,0.00,,,0.00,Wunderground v.1.15,2013-05-22 16:20:00,
2013-05-22 12:30:00,60.1,30.9,29.54,SSE,162,1.0,1.0,33,0.00,,,0.00,Wunderground v.1.15,2013-05-22 16:30:00,
2013-05-22 12:35:00,60.5,30.5,29.54,SSW,213,1.0,1.0,32,0.00,,,0.00,Wunderground v.1.15,2013-05-22 16:35:00,
2013-05-22 12:40:00,61.0,29.3,29.54,South,169,1.0,1.0,30,0.00,,,0.00,Wunderground v.1.15,2013-05-22 16:40:00,
2013-05-22 12:45:00,61.1,29.4,29.54,SE,138,1.0,1.0,30,0.00,,,0.00,Wunderground v.1.15,2013-05-22 16:45:00,
2013-05-22 12:50:00,61.1,28.6,29.54,SSE,164,1.0,1.0,29,0.00,,,0.00,Wunderground v.1.15,2013-05-22 16:50:00,
2013-05-22 12:55:00,61.3,27.9,29.53,SE,132,1.0,1.0,28,0.00,,,0.00,Wunderground v.1.15,2013-05-22 16:55:00,
2013-05-22 13:00:00,61.6,29.0,29.53,South,187,1.0,1.0,29,0.00,,,0.00,Wunderground v.1.15,2013-05-22 17:00:00,
2013-05-22 13:05:00,61.8,29.2,29.53,SSW,198,1.0,1.0,29,0.00,,,0.00,Wunderground v.1.15,2013-05-22 17:05:00,
2013-05-22 13:10:00,62.2,28.7,29.53,SSE,158,1.0,1.0,28,0.00,,,0.00,Wunderground v.1.15,2013-05-22 17:10:00,
2013-05-22 13:20:00,62.7,27.3,29.52,SSW,196,2.0,5.0,26,0.00,,,0.00,Wunderground v.1.15,2013-05-22 17:20:00,
2013-05-22 13:25:00,62.7,26.3,29.52,SSE,147,2.0,5.0,25,0.00,,,0.00,Wunderground v.1.15,2013-05-22 17:25:00,
2013-05-22 13:30:00,63.1,25.7,29.52,NNW,333,1.0,1.0,24,0.00,,,0.00,Wunderground v.1.15,2013-05-22 17:30:00,
2013-05-22 13:40:00,62.8,27.4,29.52,East,80,1.0,1.0,26,0.00,,,0.00,Wunderground v.1.15,2013-05-22 17:40:00,
2013-05-22 13:45:00,63.6,26.1,29.52,South,170,1.0,4.0,24,0.00,,,0.00,Wunderground v.1.15,2013-05-22 17:45:00,
2013-05-22 13:50:00,64.1,26.5,29.51,West,272,1.0,1.0,24,0.00,,,0.00,Wunderground v.1.15,2013-05-22 17:50:00,
2013-05-22 13:55:00,64.3,26.7,29.51,ENE,74,1.0,1.0,24,0.00,,,0.00,Wunderground v.1.15,2013-05-22 17:55:00,
2013-05-22 15:00:00,66.8,25.6,29.49,SSE,154,1.0,1.0,21,0.00,,,0.00,Wunderground v.1.15,2013-05-22 19:00:00,
2013-05-22 15:05:00,67.5,23.7,29.49,SE,137,1.0,1.0,19,0.00,,,0.00,Wunderground v.1.15,2013-05-22 19:05:00,
2013-05-22 15:10:00,67.3,23.6,29.49,West,265,1.0,1.0,19,0.00,,,0.00,Wunderground v.1.15,2013-05-22 19:10:00,
2013-05-22 15:20:00,66.7,25.5,29.48,South,172,1.0,7.0,21,0.00,,,0.00,Wunderground v.1.15,2013-05-22 19:20:00,
2013-05-22 15:25:00,67.1,24.6,29.48,South,169,2.0,7.0,20,0.00,,,0.00,Wunderground v.1.15,2013-05-22 19:25:00,
2013-05-22 15:35:00,66.0,23.7,29.48,NNW,333,1.0,3.0,20,0.00,,,0.00,Wunderground v.1.15,2013-05-22 19:35:00,
2013-05-22 15:45:00,65.4,24.4,29.48,SSE,163,1.0,1.0,21,0.00,,,0.00,Wunderground v.1.15,2013-05-22 19:45:00,
2013-05-22 15:50:00,65.4,23.2,29.47,ENE,59,1.0,1.0,20,0.00,,,0.00,Wunderground v.1.15,2013-05-22 19:50:00,
2013-05-22 15:55:00,66.2,23.9,29.47,South,170,1.0,7.0,20,0.00,,,0.00,Wunderground v.1.15,2013-05-22 19:55:00,
2013-05-22 16:00:00,66.7,23.1,29.47,SE,124,2.0,2.0,19,0.00,,,0.00,Wunderground v.1.15,2013-05-22 20:00:00,
2013-05-22 16:05:00,66.5,22.9,29.47,WNW,301,2.0,2.0,19,0.00,,,0.00,Wunderground v.1.15,2013-05-22 20:05:00,
2013-05-22 16:10:00,65.9,22.4,29.47,SSE,159,2.0,2.0,19,0.00,,,0.00,Wunderground v.1.15,2013-05-22 20:10:00,
2013-05-22 16:15:00,65.3,21.9,29.47,ESE,123,2.0,2.0,19,0.00,,,0.00,Wunderground v.1.15,2013-05-22 20:15:00,
2013-05-22 16:25:00,65.3,23.2,29.47,WNW,295,1.0,1.0,20,0.00,,,0.00,Wunderground v.1.15,2013-05-22 20:25:00,
2013-05-22 16:30:00,66.1,22.6,29.46,NNW,336,1.0,1.0,19,0.00,,,0.00,Wunderground v.1.15,2013-05-22 20:30:00,
2013-05-22 16:35:00,67.1,22.1,29.46,ENE,62,1.0,1.0,18,0.00,,,0.00,Wunderground v.1.15,2013-05-22 20:35:00,
2013-05-22 16:40:00,67.6,22.5,29.46,North,9,1.0,1.0,18,0.00,,,0.00,Wunderground v.1.15,2013-05-22 20:40:00,
2013-05-22 16:45:00,67.5,23.7,29.46,SW,230,1.0,3.0,19,0.00,,,0.00,Wunderground v.1.15,2013-05-22 20:45:00,
2013-05-22 16:50:00,66.8,21.9,29.46,ESE,120,1.0,1.0,18,0.00,,,0.00,Wunderground v.1.15,2013-05-22 20:50:00,
2013-05-22 16:55:00,66.1,22.6,29.46,ESE,119,1.0,1.0,19,0.00,,,0.00,Wunderground v.1.15,2013-05-22 20:55:00,
2013-05-22 17:00:00,66.0,22.5,29.46,ESE,118,0.0,1.0,19,0.00,,,0.00,Wunderground v.1.15,2013-05-22 21:00:00,
2013-05-22 17:10:00,66.3,21.5,29.45,SSE,148,1.0,1.0,18,0.00,,,0.00,Wunderground v.1.15,2013-05-22 21:10:00,
2013-05-22 17:15:00,66.2,21.4,29.45,SE,144,1.0,1.0,18,0.00,,,0.00,Wunderground v.1.15,2013-05-22 21:15:00,
2013-05-22 17:20:00,66.1,22.6,29.45,ESE,104,2.0,2.0,19,0.00,,,0.00,Wunderground v.1.15,2013-05-22 21:20:00,
2013-05-22 17:25:00,66.1,22.6,29.46,SSE,156,2.0,4.0,19,0.00,,,0.00,Wunderground v.1.15,2013-05-22 21:25:00,
2013-05-22 17:30:00,66.5,24.2,29.46,South,173,3.0,6.0,20,0.00,,,0.00,Wunderground v.1.15,2013-05-22 21:30:00,
2013-05-22 17:35:00,66.3,24.0,29.46,ESE,115,4.0,6.0,20,0.00,,,0.00,Wunderground v.1.15,2013-05-22 21:35:00,
2013-05-22 17:45:00,65.6,23.4,29.45,ESE,113,1.0,4.0,20,0.00,,,0.00,Wunderground v.1.15,2013-05-22 21:45:00,
2013-05-22 17:50:00,65.5,24.5,29.45,South,171,1.0,1.0,21,0.00,,,0.00,Wunderground v.1.15,2013-05-22 21:50:00,
2013-05-22 17:55:00,65.3,30.4,29.45,ENE,57,1.0,1.0,27,0.00,,,0.00,Wunderground v.1.15,2013-05-22 21:55:00,
2013-05-22 18:00:00,64.6,30.7,29.45,NE,51,1.0,1.0,28,0.00,,,0.00,Wunderground v.1.15,2013-05-22 22:00:00,
2013-05-22 18:05:00,64.6,29.8,29.45,SE,136,1.0,1.0,27,0.00,,,0.00,Wunderground v.1.15,2013-05-22 22:05:00,
2013-05-22 18:10:00,65.2,30.3,29.44,ESE,117,1.0,1.0,27,0.00,,,0.00,Wunderground v.1.15,2013-05-22 22:10:00,
2013-05-22 18:15:00,65.5,30.6,29.43,ENE,75,1.0,1.0,27,0.00,,,0.00,Wunderground v.1.15,2013-05-22 22:15:00,
2013-05-22 18:20:00,65.3,30.4,29.44,SE,139,1.0,10.0,27,0.00,,,0.00,Wunderground v.1.15,2013-05-22 22:20:00,
2013-05-22 18:30:00,64.2,31.3,29.43,NE,46,2.0,2.0,29,0.00,,,0.00,Wunderground v.1.15,2013-05-22 22:30:00,
2013-05-22 18:40:00,63.6,30.7,29.43,ENE,76,0.0,2.0,29,0.00,,,0.00,Wunderground v.1.15,2013-05-22 22:40:00,
2013-05-22 18:45:00,63.2,29.5,29.42,NE,54,1.0,2.0,28,0.00,,,0.00,Wunderground v.1.15,2013-05-22 22:45:00,
2013-05-22 18:50:00,62.7,30.8,29.43,SSE,150,1.0,1.0,30,0.00,,,0.00,Wunderground v.1.15,2013-05-22 22:50:00,
2013-05-22 18:55:00,62.6,30.7,29.42,ESE,115,1.0,1.0,30,0.00,,,0.00,Wunderground v.1.15,2013-05-22 22:55:00,
2013-05-22 19:00:00,62.6,29.9,29.42,NNE,22,1.0,1.0,29,0.00,,,0.00,Wunderground v.1.15,2013-05-22 23:00:00,
2013-05-22 19:05:00,62.5,28.9,29.43,NE,48,1.0,1.0,28,0.00,,,0.00,Wunderground v.1.15,2013-05-22 23:05:00,
2013-05-22 19:10:00,62.6,29.0,29.42,ENE,63,0.0,1.0,28,0.00,,,0.00,Wunderground v.1.15,2013-05-22 23:10:00,
2013-05-22 19:15:00,62.8,28.3,29.43,ESE,110,0.0,1.0,27,0.00,,,0.00,Wunderground v.1.15,2013-05-22 23:15:00,
2013-05-22 19:20:00,62.9,28.4,29.42,ENE,59,0.0,1.0,27,0.00,,,0.00,Wunderground v.1.15,2013-05-22 23:20:00,
2013-05-22 19:25:00,62.9,28.4,29.43,SSE,162,0.0,1.0,27,0.00,,,0.00,Wunderground v.1.15,2013-05-22 23:25:00,
2013-05-22 19:30:00,62.9,27.5,29.44,SE,139,1.0,2.0,26,0.00,,,0.00,Wunderground v.1.15,2013-05-22 23:30:00,
2013-05-22 19:35:00,62.7,28.2,29.44,East,97,1.0,2.0,27,0.00,,,0.00,Wunderground v.1.15,2013-05-22 23:35:00,
2013-05-22 19:40:00,62.3,29.6,29.45,ENE,78,1.0,1.0,29,0.00,,,0.00,Wunderground v.1.15,2013-05-22 23:40:00,
2013-05-22 19:50:00,61.3,28.7,29.44,NE,46,1.0,1.0,29,0.00,,,0.00,Wunderground v.1.15,2013-05-22 23:50:00,
2013-05-22 19:55:00,60.9,28.4,29.44,SE,133,2.0,2.0,29,0.00,,,0.00,Wunderground v.1.15,2013-05-22 23:55:00,
2013-05-22 20:00:00,60.8,29.1,29.44,East,82,1.0,1.0,30,0.00,,,0.00,Wunderground v.1.15,2013-05-23 00:00:00,
2013-05-22 20:04:00,60.6,29.0,29.45,ENE,61,1.0,1.0,30,0.00,,,0.00,Wunderground v.1.15,2013-05-23 00:04:00,
2013-05-22 20:10:00,60.4,28.8,29.45,SE,131,1.0,1.0,30,0.00,,,0.00,Wunderground v.1.15,2013-05-23 00:10:00,
2013-05-22 20:15:00,60.3,28.7,29.45,WSW,250,1.0,1.0,30,0.00,,,0.00,Wunderground v.1.15,2013-05-23 00:15:00,
2013-05-22 20:25:00,60.0,29.2,29.44,NE,42,1.0,2.0,31,0.00,,,0.00,Wunderground v.1.15,2013-05-23 00:25:00,
2013-05-22 20:35:00,59.6,28.9,29.44,NNW,342,4.0,6.0,31,0.00,,,0.00,Wunderground v.1.15,2013-05-23 00:35:00,
2013-05-22 20:40:00,59.6,28.9,29.43,NE,54,3.0,3.0,31,0.00,,,0.00,Wunderground v.1.15,2013-05-23 00:40:00,
2013-05-22 20:45:00,59.5,28.0,29.44,North,9,1.0,3.0,30,0.00,,,0.00,Wunderground v.1.15,2013-05-23 00:45:00,
2013-05-22 20:50:00,59.5,28.8,29.45,NNE,17,1.0,1.0,31,0.00,,,0.00,Wunderground v.1.15,2013-05-23 00:50:00,
2013-05-22 20:55:00,59.4,27.9,29.46,NNE,17,0.0,1.0,30,0.00,,,0.00,Wunderground v.1.15,2013-05-23 00:55:00,
2013-05-22 21:00:00,59.4,28.7,29.46,NNE,17,0.0,1.0,31,0.00,,,0.00,Wunderground v.1.15,2013-05-23 01:00:00,
2013-05-22 21:05:00,59.3,29.4,29.46,NNE,17,0.0,1.0,32,0.00,,,0.00,Wunderground v.1.15,2013-05-23 01:05:00,
2013-05-22 21:10:00,59.2,29.3,29.47,NNE,17,0.0,1.0,32,0.00,,,0.00,Wunderground v.1.15,2013-05-23 01:10:00,
2013-05-22 21:15:00,59.0,29.2,29.47,NNE,17,0.0,1.0,32,0.00,,,0.00,Wunderground v.1.15,2013-05-23 01:15:00,
2013-05-22 21:20:00,58.9,29.8,29.48,NNE,17,0.0,1.0,33,0.00,,,0.00,Wunderground v.1.15,2013-05-23 01:20:00,
2013-05-22 21:25:00,58.7,30.4,29.48,NNE,17,0.0,1.0,34,0.00,,,0.00,Wunderground v.1.15,2013-05-23 01:25:00,
2013-05-22 21:35:00,58.5,28.7,29.48,NE,52,0.0,1.0,32,0.00,,,0.00,Wunderground v.1.15,2013-05-23 01:35:00,
2013-05-22 21:40:00,58.5,28.7,29.48,ENE,69,0.0,1.0,32,0.00,,,0.00,Wunderground v.1.15,2013-05-23 01:40:00,
2013-05-22 21:45:00,58.3,29.3,29.48,ENE,68,0.0,1.0,33,0.00,,,0.00,Wunderground v.1.15,2013-05-23 01:45:00,
2013-05-22 21:50:00,58.0,29.0,29.49,East,82,0.0,1.0,33,0.00,,,0.00,Wunderground v.1.15,2013-05-23 01:50:00,
2013-05-22 22:00:00,57.8,29.6,29.49,NE,40,0.0,1.0,34,0.00,,,0.00,Wunderground v.1.15,2013-05-23 02:00:00,
2013-05-22 22:05:00,57.6,29.4,29.50,NNE,21,0.0,1.0,34,0.00,,,0.00,Wunderground v.1.15,2013-05-23 02:05:00,
2013-05-22 22:20:00,57.2,29.8,29.53,South,189,1.0,6.0,35,0.00,,,0.00,Wunderground v.1.15,2013-05-23 02:20:00,
2013-05-22 22:25:00,56.9,29.5,29.53,East,88,3.0,6.0,35,0.00,,,0.00,Wunderground v.1.15,2013-05-23 02:25:00,
2013-05-22 22:30:00,56.8,29.4,29.52,ENE,78,3.0,4.0,35,0.00,,,0.00,Wunderground v.1.15,2013-05-23 02:30:00,
2013-05-22 22:35:00,56.6,29.9,29.52,ESE,111,1.0,4.0,36,0.00,,,0.00,Wunderground v.1.15,2013-05-23 02:35:00,
2013-05-22 22:40:00,56.4,31.1,29.52,SE,139,1.0,2.0,38,0.00,,,0.00,Wunderground v.1.15,2013-05-23 02:40:00,
2013-05-22 22:45:00,56.1,30.8,29.52,East,92,1.0,2.0,38,0.00,,,0.00,Wunderground v.1.15,2013-05-23 02:45:00,
2013-05-22 22:50:00,55.9,30.6,29.51,ESE,118,1.0,1.0,38,0.00,,,0.00,Wunderground v.1.15,2013-05-23 02:50:00,
2013-05-22 22:55:00,55.9,30.0,29.51,NE,47,1.0,2.0,37,0.00,,,0.00,Wunderground v.1.15,2013-05-23 02:55:00,
2013-05-22 23:00:00,56.1,29.5,29.52,SSE,152,2.0,7.0,36,0.00,,,0.00,Wunderground v.1.15,2013-05-23 03:00:00,
2013-05-22 23:05:00,56.2,29.6,29.51,NNW,346,2.0,7.0,36,0.00,,,0.00,Wunderground v.1.15,2013-05-23 03:05:00,
2013-05-22 23:15:00,55.7,29.1,29.52,NE,44,3.0,3.0,36,0.00,,,0.00,Wunderground v.1.15,2013-05-23 03:15:00,
2013-05-22 23:20:00,55.8,29.2,29.53,East,79,1.0,1.0,36,0.00,,,0.00,Wunderground v.1.15,2013-05-23 03:20:00,
2013-05-22 23:25:00,55.8,29.2,29.54,East,80,0.0,1.0,36,0.00,,,0.00,Wunderground v.1.15,2013-05-23 03:25:00,
2013-05-22 23:30:00,55.7,29.1,29.54,SE,138,0.0,1.0,36,0.00,,,0.00,Wunderground v.1.15,2013-05-23 03:30:00,
2013-05-22 23:35:00,55.5,29.6,29.53,NE,38,1.0,1.0,37,0.00,,,0.00,Wunderground v.1.15,2013-05-23 03:35:00,
2013-05-22 23:40:00,55.4,28.9,29.54,SE,142,1.0,1.0,36,0.00,,,0.00,Wunderground v.1.15,2013-05-23 03:40:00,
2013-05-22 23:50:00,55.5,29.0,29.54,ESE,113,0.0,1.0,36,0.00,,,0.00,Wunderground v.1.15,2013-05-23 03:50:00,
2013-05-22 23:55:00,55.7,28.4,29.54,SSE,153,1.0,1.0,35,0.00,,,0.00,Wunderground v.1.15,2013-05-23 03:55:00,